EW8476 Weather Reports


Display with metric or nautical units.
time (UTC)temp
F
wind
direction
speed
MPH
gust
MPH
rain 1hr
in
rain 24hr
in
rain mn
in
humidity
%
barometer
mb
20260510184533 84 173 11.0 21.0 0.00 0.00 0.00 54 940.7
20260510183519 83 168 9.0 19.0 0.00 0.00 0.00 54 940.5
20260510182625 83 170 10.0 18.0 0.00 0.00 0.00 54 940.6
20260510181552 82 190 15.0 22.0 0.00 0.00 0.00 54 940.8
20260510180559 82 181 11.0 25.0 0.00 0.00 0.00 53 940.8
20260510175517 82 175 13.0 19.0 0.00 0.00 0.00 55 940.9
20260510174608 82 179 6.0 21.0 0.00 0.00 0.00 57 941.0
20260510173548 82 167 9.0 17.0 0.00 0.00 0.00 57 941.1
20260510172526 82 162 10.0 20.0 0.00 0.00 0.00 58 941.3
20260510171609 81 184 12.0 22.0 0.00 0.00 0.00 57 941.4
20260510170556 81 162 7.0 17.0 0.00 0.00 0.00 57 941.5
20260510165541 81 172 7.0 18.0 0.00 0.00 0.00 60 941.4
20260510164541 81 183 8.0 18.0 0.00 0.00 0.00 58 941.4
20260510163610 80 158 7.0 16.0 0.00 0.00 0.00 60 941.4
20260510162617 80 157 8.0 15.0 0.00 0.00 0.00 60 941.4
20260510161543 80 137 7.0 15.0 0.00 0.00 0.00 61 941.2
20260510160525 79 173 7.0 12.0 0.00 0.00 0.00 63 941.2
20260510155648 79 176 8.0 12.0 0.00 0.00 0.00 62 941.2
20260510154539 78 182 6.0 13.0 0.00 0.00 0.00 64 941.1
20260510153527 78 179 8.0 15.0 0.00 0.00 0.00 67 940.6
20260510152613 77 182 10.0 19.0 0.00 0.00 0.00 68 940.4
20260510151551 76 189 8.0 15.0 0.00 0.00 0.00 70 940.5
20260510150533 76 204 10.0 18.0 0.00 0.00 0.00 72 940.4
20260510145616 75 195 12.0 20.0 0.00 0.00 0.00 73 940.1
20260510144553 75 195 15.0 21.0 0.00 0.01 0.00 75 939.9
20260510143540 74 202 11.0 25.0 0.00 0.01 0.00 78 939.8
20260510142527 73 199 14.0 21.0 0.00 0.01 0.00 79 939.8
20260510141614 73 217 11.0 19.0 0.00 0.01 0.00 81 939.9
20260510140600 72 193 14.0 23.0 0.00 0.02 0.00 83 939.8
20260510135538 71 198 11.0 19.0 0.00 0.02 0.00 85 939.8
20260510134520 71 203 11.0 18.0 0.00 0.02 0.00 85 939.7
20260510133559 70 207 13.0 22.0 0.00 0.02 0.00 86 939.6
20260510132542 70 201 13.0 19.0 0.00 0.02 0.00 87 939.5
20260510131549 69 203 11.0 18.0 0.00 0.02 0.00 88 939.5
20260510130516 69 209 11.0 21.0 0.00 0.02 0.00 90 939.3
20260510125600 68 203 11.0 15.0 0.00 0.02 0.00 90 939.1
20260510124606 68 204 8.0 13.0 0.00 0.02 0.00 91 939.3
20260510123532 67 207 8.0 13.0 0.00 0.02 0.00 92 939.0
20260510122519 67 196 9.0 13.0 0.00 0.02 0.00 93 939.0
20260510121603 66 202 7.0 10.0 0.00 0.02 0.00 94 939.2
20260510120543 66 202 7.0 12.0 0.00 0.02 0.00 94 939.1
20260510115522 65 202 8.0 11.0 0.00 0.03 0.00 94 939.0
20260510114605 65 199 5.0 13.0 0.00 0.03 0.00 95 938.6
20260510113551 65 179 7.0 11.0 0.00 0.03 0.00 94 938.6
20260510112534 65 204 6.0 11.0 0.00 0.03 0.00 94 938.6
20260510111517 66 191 6.0 10.0 0.00 0.03 0.00 93 938.7
20260510110600 66 176 6.0 12.0 0.00 0.03 0.00 93 938.7
20260510105541 67 194 7.0 12.0 0.00 0.03 0.00 92 938.7
20260510104519 67 205 9.0 15.0 0.00 0.03 0.00 92 938.6
20260510103559 67 191 7.0 12.0 0.00 0.03 0.00 92 938.7
20260510102537 67 204 8.0 12.0 0.00 0.03 0.00 92 938.9
20260510101519 66 188 6.0 10.0 0.00 0.03 0.00 92 938.7
20260510100559 67 201 5.0 10.0 0.00 0.03 0.00 91 938.9
20260510095546 67 195 8.0 15.0 0.00 0.03 0.00 91 938.7
20260510094525 67 187 7.0 11.0 0.00 0.03 0.00 90 938.8
20260510093612 67 195 7.0 12.0 0.00 0.03 0.00 89 938.7
20260510092559 68 193 6.0 11.0 0.00 0.03 0.00 88 938.7
20260510091539 68 193 7.0 9.0 0.00 0.03 0.00 88 938.6
20260510090527 68 195 6.0 10.0 0.00 0.03 0.00 87 938.6
20260510085610 68 192 6.0 12.0 0.00 0.03 0.00 87 938.5
20260510084552 68 191 7.0 12.0 0.00 0.03 0.00 86 938.4
20260510083535 68 192 7.0 12.0 0.00 0.03 0.00 86 938.3
20260510082540 68 190 8.0 11.0 0.00 0.03 0.00 86 938.4
20260510081607 68 198 7.0 8.0 0.00 0.03 0.00 86 938.6
20260510080549 68 188 6.0 8.0 0.00 0.03 0.00 85 938.5
20260510075528 69 190 7.0 9.0 0.00 0.03 0.00 83 938.6
20260510074607 69 195 7.0 11.0 0.00 0.03 0.00 83 938.5
20260510073554 68 190 6.0 9.0 0.00 0.03 0.00 84 938.5
20260510072540 68 184 6.0 8.0 0.00 0.03 0.00 83 938.6
20260510071539 69 182 5.0 7.0 0.00 0.03 0.00 83 938.7
20260510070602 69 183 3.0 6.0 0.00 0.03 0.00 83 938.6
20260510065545 69 185 3.0 5.0 0.00 0.03 0.00 81 938.6
20260510064531 70 180 3.0 7.0 0.00 0.03 0.00 80 938.8
20260510063519 70 176 3.0 5.0 0.00 0.03 0.00 80 938.7
20260510062607 71 186 3.0 6.0 0.00 0.03 0.00 78 938.8
20260510061549 71 175 3.0 8.0 0.00 0.03 0.00 78 938.9
20260510060549 70 164 5.0 9.0 0.00 0.03 0.00 79 938.8
20260510055516 70 160 3.0 7.0 0.00 0.03 0.00 78 938.8
20260510054604 70 174 2.0 6.0 0.00 0.03 0.00 80 938.7
20260510053546 69 184 3.0 5.0 0.00 0.03 0.00 79 938.4
20260510052524 70 181 3.0 5.0 0.00 0.03 0.00 79 938.6
20260510051628 70 183 4.0 6.0 0.00 0.03 0.00 78 938.5
20260510050554 70 178 4.0 6.0 0.00 0.03 0.00 78 938.5
20260510045541 71 181 3.0 5.0 0.00 0.03 0.03 77 938.6
20260510044528 71 194 3.0 5.0 0.00 0.03 0.03 75 938.6
20260510043616 72 184 3.0 6.0 0.00 0.03 0.03 75 938.7
20260510042621 73 167 3.0 6.0 0.00 0.03 0.03 73 938.6
20260510041548 73 154 3.0 7.0 0.00 0.03 0.03 73 938.6
20260510040555 73 155 3.0 7.0 0.00 0.03 0.03 73 938.3
20260510035522 73 148 3.0 7.0 0.00 0.03 0.03 73 938.4
20260510034559 73 136 4.0 6.0 0.00 0.03 0.03 73 938.3
20260510033546 74 135 4.0 11.0 0.00 0.03 0.03 73 938.2
20260510032525 74 137 3.0 7.0 0.00 0.03 0.03 72 938.2
20260510031600 74 144 4.0 6.0 0.00 0.03 0.03 71 938.0
20260510030625 75 139 4.0 9.0 0.00 0.03 0.03 69 937.9
20260510025530 75 129 4.0 9.0 0.00 0.03 0.03 69 937.6
20260510024613 75 133 3.0 7.0 0.00 0.03 0.03 67 937.5
20260510023559 76 134 2.0 6.0 0.00 0.03 0.03 64 937.5
20260510022604 78 133 4.0 8.0 0.00 0.03 0.03 60 937.5
20260510021524 79 138 3.0 9.0 0.00 0.03 0.03 52 937.3
20260510020612 80 87 0.0 3.0 0.00 0.03 0.03 49 937.2
20260510015559 81 75 0.0 2.0 0.00 0.03 0.03 46 937.0
20260510014546 82 330 1.0 2.0 0.00 0.03 0.03 44 937.0
20260510013528 82 122 1.0 2.0 0.00 0.03 0.03 44 936.9
20260510012604 82 156 0.0 2.0 0.00 0.03 0.03 45 936.8
20260510011551 83 158 0.0 3.0 0.00 0.03 0.03 44 936.9
20260510010538 84 0.0 1.0 0.00 0.03 0.03 42 936.9
20260510005525 85 0.0 1.0 0.00 0.03 0.03 44 936.9
20260510004628 85 180 0.0 2.0 0.00 0.03 0.03 43 936.8
20260510003552 86 33 1.0 2.0 0.00 0.03 0.03 45 936.9
20260510002536 86 333 0.0 2.0 0.00 0.03 0.03 44 936.7
20260510001542 86 188 3.0 5.0 0.00 0.03 0.03 39 936.8
20260510000642 88 211 1.0 2.0 0.00 0.03 0.03 38 936.7
20260509235549 91 165 1.0 2.0 0.00 0.03 0.03 35 937.0
20260509234536 90 156 1.0 2.0 0.00 0.03 0.03 34 936.9
20260509233524 89 271 2.0 5.0 0.00 0.03 0.03 36 936.8
20260509232613 87 187 2.0 5.0 0.00 0.03 0.03 39 936.7
20260509231554 86 229 4.0 7.0 0.00 0.03 0.03 40 936.6
20260509230537 87 232 6.0 10.0 0.00 0.03 0.03 38 936.6
20260509225520 86 211 3.0 6.0 0.00 0.03 0.03 43 936.8
20260509224601 87 214 4.0 9.0 0.00 0.03 0.03 42 936.8
20260509223548 86 203 5.0 8.0 0.00 0.03 0.03 42 936.8
20260509222535 86 149 2.0 6.0 0.00 0.03 0.03 43 936.7
20260509221522 86 201 4.0 7.0 0.00 0.03 0.03 42 936.8
20260509220610 86 239 7.0 14.0 0.00 0.03 0.03 44 936.8
20260509215552 85 222 2.0 11.0 0.00 0.03 0.03 46 936.7
20260509214537 85 243 8.0 13.0 0.00 0.03 0.03 46 936.8
20260509213520 85 205 5.0 9.0 0.00 0.03 0.03 46 936.8
20260509212608 85 233 6.0 15.0 0.00 0.03 0.03 48 937.0
20260509211555 85 288 8.0 11.0 0.00 0.03 0.03 48 937.0
20260509210542 84 215 7.0 13.0 0.00 0.03 0.03 48 937.0
20260509205528 84 265 12.0 19.0 0.00 0.03 0.03 50 937.3
20260509204609 84 271 6.0 11.0 0.00 0.03 0.03 51 937.4
20260509203544 83 274 6.0 11.0 0.00 0.03 0.03 54 937.4
20260509202546 83 255 9.0 14.0 0.00 0.03 0.03 52 937.6
20260509201609 83 218 9.0 13.0 0.00 0.03 0.03 54 937.7
20260509200546 84 233 7.0 13.0 0.00 0.03 0.03 51 937.9
20260509195529 83 247 6.0 11.0 0.00 0.03 0.03 54 938.0
20260509194607 82 213 8.0 17.0 0.00 0.03 0.03 56 938.2
20260509193555 82 279 4.0 12.0 0.00 0.03 0.03 57 938.3
20260509192557 82 230 7.0 15.0 0.00 0.03 0.03 58 938.4
20260509191616 81 268 8.0 14.0 0.00 0.03 0.03 59 938.4
20260509190558 80 239 6.0 14.0 0.00 0.03 0.03 59 938.4